sat.trackr.live / text

‹ back to catalog

HULIANWANG DIGUI-159

NORAD 68133 · 2026-047E

PAYLOAD ACTIVE UNKNOWN

§ Identity

Operator
Country
PRC
Launch date
2026-03-12
Launch site
WSC
Launch vehicle
Mass (kg)
RCS (m²)

External: N2YO · Heavens-Above · Gunter

§ Orbital elements

Epoch: 2026-05-24T08:44:12.640416Z

Period
108.33 min
Inclination
49.9994°
Eccentricity
0.0000425
Mean motion
13.29330661 rev/d
Perigee alt
1,149.0 km
Apogee alt
1,149.6 km
Semi-major
7,527.4 km
B*
6.2635e-5
RAAN
141.5302°
Arg perigee
0.2138°
Mean anomaly
359.8734°
Rev number
990

§ Raw data

HULIANWANG DIGUI-1591 68133U 26047E   26144.36403519 -.00000095  00000+0  62635-4 0  99982 68133  49.9994 141.5302 0000425   0.2138 359.8734 13.29330661  9909

JSON: /api/v1/satellites/68133 · /tle

For live sub-satellite position, see the globe view (requires WebGL).

§ Visibility from observer

Set your observer location to see the next 7 days of passes ≥ 10°. The values pass through the URL so the page stays shareable.

No JS? Fill the form by hand. The geolocation button needs JavaScript.